Location: Foligno
(42.9600°N, 12.7050°E)
Time: 07:12:00
(UTC+01:00)

ISS - Pass Details

Date: 12 November 2018
Orbit: 401 x 409 km, 51.6° (Epoch: 21 November)

Event Time Altitude Azimuth Distance (km) Brightness Sun altitude
Exits shadow 04:18:37 15° 68° (ENE) 1,210 -0.7 -29.1°
Drops below altitude 10° 04:19:23 10° 77° (ENE) 1,462 -0.1 -29.0°
Sets 04:21:41 0° 90° (E) 2,321 1.3 -28.6°
